Location: Unspecified
(52.4292°N, 19.3359°E)
Time: 01:57:30
(UTC+02:00)

Vanguard 1 Rocket - Pass Details

Date: 21 May 2024
Orbit: 649 x 4221 km, 34.3° (Epoch: 13 June)

Event Time Altitude Azimuth Distance (km) Brightness Sun altitude
Rises 10:13:58 0° 226° (SW) 7,956 12.1 47.4°
Reaches altitude 10° 10:21:04 10° 217° (SW) 6,442 11.8 48.3°
Maximum altitude 10:35:12 28° 169° (S) 3,781 11.6 49.9°
Drops below altitude 10° 10:44:02 10° 116° (ESE) 3,957 11.5 50.9°
Sets 10:47:07 0° 104° (ESE) 4,538 11.5 51.2°
